Youngstown, OH

7:58 PM EDT on September 21, 2017 (GMT -0400)
Youngstown-Warren Regional

Weather History for KYNG - May, 2013

Change the Weather History Date:

Friday, May 10, 2013

  Actual Average Record
Temperature  
Mean Temperature 67 °F 56 °F  
Max Temperature 74 °F 67 °F 87 °F (1936)
Min Temperature 59 °F 45 °F 24 °F (1966)
Degree Days  
Heating Degree Days 0 9  
Month to date heating degree days 21 105  
Since 1 July heating degree days 5931 6132  
Cooling Degree Days 2 1  
Month to date cooling degree days 2 3  
Year to date cooling degree days 9 12  
Growing Degree Days 14 (Base 50)    
Moisture  
Dew Point 55 °F    
Average Humidity 73    
Maximum Humidity 97    
Minimum Humidity 48    
Precipitation  
Precipitation 0.29 in 0.12 in 1.35 in (1957)
Month to date precipitation 0.35 1.14  
Year to date precipitation 10.65 12.14  
Snow  
Snow 0.00 in 0.00 in - ()
Month to date snowfall 0.0 0.0  
Since 1 July snowfall 80.9 62.7  
Snow Depth 0.00 in    
Sea Level Pressure  
Sea Level Pressure 29.86 in    
Wind  
Wind Speed 9 mph (South)    
Max Wind Speed 30 mph    
Max Gust Speed 44 mph    
Visibility 8 miles    
Events Rain , Thunderstorm    
T = Trace of Precipitation, MM = Missing Value Source: NWS Daily Summary

Daily Weather History Graph

Daily Weather History Graph

Search for Another Location

Airport or City:

Trip Planner

Search our weather history database for the weather conditions in past years. The results will help you decide how hot, cold, wet, or windy it might be!

Date:

Astronomy

May. 10, 2013 Rise Set
Actual Time 6:09 AM EDT 8:29 PM EDT
Civil Twilight 5:38 AM EDT 9:00 PM EDT
Nautical Twilight 5:00 AM EDT 9:39 PM EDT
Astronomical Twilight 4:17 AM EDT 10:21 PM EDT
Moon 6:32 AM EDT (5/10) 9:18 PM EDT (5/10)
Length of Visible Light 15h 22m
Length of Day
14h 20m
New Moon, 0% of the Moon is Illuminated
May 10
New Moon
May 18
First Quarter
May 25
Full
May 31
Last Quarter
Jun 8
New

Hourly Weather History & Observations

Time (EDT) Temp. Dew Point Humidity Pressure Visibility Wind Dir Wind Speed Gust Speed Precip Events Conditions
12:51 AM 59.0 °F 42.1 °F 53% 29.98 in 10.0 mi SSE 5.8 mph - N/A   Overcast
1:51 AM 61.0 °F 42.1 °F 50% 29.96 in 10.0 mi SSE 8.1 mph - N/A   Overcast
2:51 AM 63.0 °F 42.1 °F 46% 29.94 in 10.0 mi SSE 8.1 mph - N/A   Overcast
3:51 AM 62.1 °F 46.9 °F 58% 29.93 in 10.0 mi South 6.9 mph - N/A   Overcast
4:51 AM 61.0 °F 50.0 °F 67% 29.91 in 10.0 mi South 9.2 mph - N/A   Overcast
5:51 AM 61.0 °F 52.0 °F 72% 29.90 in 10.0 mi SSE 6.9 mph - 0.00 in Rain Light Rain
6:51 AM 59.0 °F 55.9 °F 90% 29.93 in 7.0 mi South 5.8 mph - 0.04 in Rain Light Rain
7:51 AM 59.0 °F 57.0 °F 93% 29.92 in 10.0 mi South 4.6 mph - 0.02 in   Overcast
8:51 AM 62.1 °F 57.9 °F 86% 29.91 in 10.0 mi South 8.1 mph - N/A   Overcast
9:51 AM 66.9 °F 57.9 °F 73% 29.90 in 10.0 mi South 8.1 mph - N/A   Overcast
10:51 AM 68.0 °F 57.0 °F 68% 29.89 in 10.0 mi SSW 12.7 mph 21.9 mph N/A   Overcast
11:51 AM 71.1 °F 59.0 °F 66% 29.88 in 10.0 mi SSW 10.4 mph 24.2 mph N/A   Overcast
12:51 PM 72.0 °F 59.0 °F 64% 29.87 in 10.0 mi SSW 10.4 mph - N/A   Overcast
1:51 PM 73.9 °F 59.0 °F 59% 29.85 in 10.0 mi SSW 13.8 mph 20.7 mph N/A   Overcast
2:51 PM 73.9 °F 59.0 °F 59% 29.82 in 10.0 mi SW 13.8 mph 24.2 mph N/A   Overcast
3:51 PM 73.0 °F 57.9 °F 59% 29.80 in 10.0 mi SSW 17.3 mph 25.3 mph N/A   Overcast
4:51 PM 70.0 °F 57.0 °F 63% 29.80 in 10.0 mi South 19.6 mph 24.2 mph N/A   Overcast
5:10 PM 64.4 °F 59.0 °F 83% 29.85 in 1.2 mi SW 29.9 mph 43.7 mph 0.05 in Rain , Thunderstorm Thunderstorms and Rain
5:32 PM 60.8 °F 57.2 °F 88% 29.86 in 2.5 mi SW 15.0 mph 26.5 mph 0.10 in Rain , Thunderstorm Thunderstorms and Rain
5:42 PM 60.8 °F 57.2 °F 88% 29.86 in 3.0 mi SW 15.0 mph 21.9 mph 0.14 in Rain , Thunderstorm Light Thunderstorms and Rain
5:51 PM 60.1 °F 57.9 °F 93% 29.85 in 3.0 mi SW 9.2 mph 20.7 mph 0.17 in Rain , Thunderstorm Light Thunderstorms and Rain
6:26 PM 60.8 °F 57.2 °F 88% 29.83 in 6.0 mi South 6.9 mph - 0.02 in Rain Light Rain
6:51 PM 60.1 °F 57.9 °F 93% 29.82 in 8.0 mi SSW 6.9 mph - 0.03 in Rain Light Rain
7:51 PM 59.0 °F 57.9 °F 96% 29.81 in 10.0 mi South 5.8 mph - 0.01 in Rain Light Rain
8:06 PM 59.0 °F 57.2 °F 94% 29.81 in 6.0 mi South 5.8 mph - 0.00 in Rain Light Rain
8:18 PM 59.0 °F 57.2 °F 94% 29.80 in 6.0 mi South 6.9 mph - 0.00 in Rain Light Rain
8:42 PM 60.8 °F 57.2 °F 88% 29.80 in 6.0 mi South 6.9 mph - 0.01 in Rain Light Rain
8:51 PM 60.1 °F 57.9 °F 93% 29.79 in 6.0 mi SSW 9.2 mph - 0.01 in Rain Light Rain
9:35 PM 60.8 °F 57.2 °F 88% 29.80 in 8.0 mi South 6.9 mph - 0.01 in Rain Light Rain
9:51 PM 60.1 °F 57.9 °F 93% 29.79 in 8.0 mi SSW 6.9 mph - 0.01 in Rain Light Rain
10:51 PM 60.1 °F 57.9 °F 93% 29.78 in 10.0 mi SSW 6.9 mph - 0.00 in   Overcast
11:28 PM 60.8 °F 59.0 °F 94% 29.78 in 8.0 mi SSW 5.8 mph - N/A   Overcast
11:51 PM 60.1 °F 59.0 °F 96% 29.76 in 8.0 mi SSW 9.2 mph - N/A   Overcast